RH
12 12 12 12 12 11 11 10 9 8 8 7 7 7 7 7 7 7 7 7 8 8 8 8 8 8 7 7 8 7 7 6 5 5 4 4 4 5 8 10 10 10 10 13 17 22 25 29 35 36 37 42 50 59 66 70 70 73 84 89 91 95 95 92 89 87 86 79 78 77 70 68 66 62 62 64 61 54 50 49 47 43 36 37 42 44 41 41
12 12 12 12 12 12 11 9 8 8 7 7 7 7 7 7 6 6 6 6 7 8 8 8 8 8 8 8 8 7 7 7 6 5 5 4 4 4 6 7 9 9 9 11 14 21 26 27 31 35 37 44 53 60 66 71 72 75 84 88 92 94 91 90 90 88 82 77 80 75 67 67 63 59 62 65 62 55 52 51 52 47 38 37 40 42 40 39
12 12 12 12 12 12 11 9 8 7 7 7 7 7 7 6 6 5 5 6 6 6 6 7 8 7 8 8 8 8 7 8 7 8 7 6 5 4 4 5 6 7 8 10 13 19 26 27 29 34 40 46 52 59 67 74 75 78 83 88 91 90 88 89 89 88 79 76 82 78 72 70 62 60 64 65 62 59 56 51 51 45 35 35 39 40 39 38
12 12 12 12 12 12 11 9 8 7 7 6 6 6 6 6 6 5 5 5 5 6 6 6 7 7 8 8 8 8 7 10 12 12 11 8 6 4 3 4 4 6 7 9 12 17 23 26 31 37 41 45 50 58 67 75 78 79 83 87 89 87 87 88 87 88 81 76 81 78 76 75 65 64 64 61 62 61 55 49 43 39 34 32 36 38 38 39
13 13 12 12 12 11 11 9 8 7 7 7 7 7 6 6 6 6 5 5 5 5 5 5 6 6 7 8 9 8 9 14 16 15 14 11 8 6 4 3 4 4 6 8 12 17 21 25 33 40 40 41 48 59 68 74 77 80 81 82 86 86 86 87 86 87 84 79 80 75 74 76 67 63 63 60 60 56 52 49 41 37 37 34 33 36 38 39
14 13 13 12 12 11 10 9 7 7 7 7 8 8 7 7 6 6 6 6 6 5 5 5 5 6 6 7 8 8 10 14 14 15 15 12 10 8 5 4 3 4 4 8 12 16 20 23 32 39 39 39 44 56 67 72 76 80 80 79 84 86 85 88 88 86 83 77 76 73 72 75 66 61 62 59 57 54 52 49 42 36 38 36 33 35 37 37
14 13 13 12 12 11 10 8 7 7 8 9 9 9 9 8 7 7 6 6 6 6 6 5 5 6 6 7 7 8 11 12 12 15 16 14 12 9 7 4 3 4 4 8 12 16 20 23 31 36 37 38 39 51 65 71 75 79 79 81 85 86 84 88 91 88 82 75 73 72 72 72 66 63 62 58 58 57 54 51 45 36 35 37 34 34 36 35
14 13 12 12 12 11 10 8 7 8 9 9 10 11 10 9 8 7 6 6 6 6 6 6 6 6 6 7 7 11 14 12 13 16 15 15 14 11 9 5 4 4 4 9 13 16 18 23 31 34 36 37 40 55 67 72 77 79 81 84 85 86 85 87 90 88 82 77 73 72 73 68 65 65 60 58 61 61 57 53 48 37 32 36 34 33 35 37
13 13 12 12 11 10 10 9 7 8 9 10 11 11 11 10 9 9 8 7 7 7 6 7 7 6 7 6 8 15 16 12 13 16 14 14 14 12 10 6 4 4 4 9 13 15 18 24 31 34 36 37 42 56 65 71 78 79 82 85 85 86 86 87 89 84 81 80 74 71 71 64 60 61 58 59 61 60 59 53 45 37 32 35 33 33 36 39
13 12 12 11 10 10 10 9 7 8 9 10 11 10 11 10 10 10 9 9 9 8 8 8 7 7 7 6 11 16 13 14 15 13 14 15 13 11 11 8 5 4 4 9 13 14 17 24 30 32 35 36 39 52 63 71 78 78 80 83 84 86 86 89 87 81 82 80 73 70 68 61 56 56 59 61 58 57 59 52 44 37 33 34 33 36 40 42
12 11 11 11 10 10 10 9 7 8 9 10 10 10 10 9 10 10 10 10 10 10 9 10 8 8 7 7 14 15 10 15 15 12 14 16 14 11 11 9 5 4 5 8 12 13 17 24 29 29 33 37 39 53 65 71 76 77 78 79 82 85 85 89 86 81 83 80 75 72 67 61 56 56 60 60 56 57 58 51 46 39 35 36 34 39 43 45
11 10 11 10 10 10 10 9 8 8 9 10 10 10 9 9 9 9 10 9 9 10 10 10 10 9 8 7 10 10 8 12 11 12 14 14 14 11 10 10 6 5 6 9 12 13 17 23 27 29 33 38 43 54 63 68 75 77 76 78 81 83 85 89 87 84 85 82 79 74 68 64 60 61 63 59 55 56 56 51 47 43 42 40 36 42 45 45
10 10 10 10 10 10 10 10 8 8 9 10 10 9 9 9 9 9 9 9 8 9 9 11 10 9 10 10 8 8 9 9 8 10 11 11 13 12 11 12 9 6 7 10 11 13 19 23 27 29 31 37 45 55 63 69 74 75 76 77 78 82 85 88 88 86 85 83 81 76 72 69 63 63 65 62 55 51 52 50 47 45 45 41 38 44 45 45
9 9 10 10 10 10 10 10 9 8 9 10 10 9 9 8 9 9 9 9 8 8 9 10 10 11 13 11 8 10 10 8 8 8 8 9 11 13 12 12 11 9 8 10 11 14 19 22 26 29 29 33 42 54 66 74 77 76 77 78 78 83 85 87 89 87 86 85 83 79 75 70 64 63 64 61 56 48 46 46 44 45 44 40 41 45 44 45
8 8 9 10 10 10 10 10 9 8 9 9 9 9 9 10 11 11 11 10 8 9 9 9 12 14 17 14 10 12 12 10 9 7 8 9 9 12 13 13 12 10 9 10 11 14 17 19 24 28 29 31 38 51 66 75 81 79 79 81 81 84 86 86 88 88 88 87 85 83 79 73 69 69 67 60 55 49 45 43 43 44 43 39 42 45 42 45
8 8 8 9 10 10 10 10 9 8 8 8 8 9 11 13 15 17 14 10 11 15 12 11 17 19 20 19 13 13 14 11 9 8 9 9 10 14 14 13 13 11 10 11 12 14 16 18 21 25 27 32 38 51 64 72 81 81 75 79 80 83 88 87 87 88 89 89 88 87 84 79 74 72 70 62 54 51 46 42 42 44 43 39 43 43 40 45
9 7 8 8 10 10 10 10 9 8 8 7 9 13 16 17 18 22 17 10 14 20 18 15 19 24 23 19 16 16 15 13 14 14 13 11 13 18 19 16 15 13 11 13 15 15 16 17 18 23 25 31 39 50 65 72 79 81 74 76 77 80 88 88 88 90 89 90 89 88 86 82 76 72 69 62 56 53 48 43 42 44 43 41 44 42 39 46
8 8 7 8 9 10 10 10 9 8 7 8 9 13 18 18 20 25 20 15 17 22 27 24 24 27 24 19 19 19 17 17 19 19 16 13 13 18 21 19 17 15 14 15 16 16 17 15 16 23 25 30 37 45 63 71 73 78 77 77 77 78 85 86 88 89 87 89 89 89 88 84 80 75 69 62 56 55 53 48 43 44 44 43 45 42 40 47
8 8 7 7 9 9 9 9 9 8 8 10 9 12 18 19 23 28 22 20 24 26 29 27 26 27 23 20 19 18 19 21 21 18 17 15 14 16 18 20 19 19 18 18 18 16 17 16 17 22 24 29 37 43 56 64 66 73 74 74 77 79 83 82 85 89 88 89 89 89 89 86 83 77 69 62 58 57 58 55 49 46 43 43 46 42 40 48
8 8 7 7 8 9 9 9 10 10 10 12 11 14 18 18 22 27 22 20 23 24 22 19 19 20 20 23 22 19 21 21 19 19 17 17 16 17 17 19 21 22 22 19 18 16 15 17 18 19 21 25 34 41 50 59 63 69 73 72 76 80 82 82 85 89 90 90 89 89 90 88 85 79 70 63 62 62 61 60 56 51 45 43 46 42 41 49
8 8 7 7 8 9 9 10 12 12 12 13 13 14 16 16 19 23 20 18 19 21 20 16 16 16 15 21 22 20 21 20 19 19 18 17 17 17 16 19 22 23 22 18 17 17 15 17 17 17 19 21 32 41 46 57 62 65 71 73 76 80 82 82 86 89 89 89 89 89 92 90 86 82 74 66 67 66 61 62 62 57 50 46 47 43 43 50
8 7 7 7 7 9 11 12 13 13 14 14 13 15 17 16 19 22 21 20 21 21 20 18 17 15 11 15 19 17 18 19 19 20 19 18 16 16 17 19 22 23 21 17 17 19 16 14 14 15 17 22 34 42 45 54 59 61 67 70 74 80 81 83 86 89 90 91 91 92 92 91 89 86 78 71 70 66 62 64 65 60 56 52 50 45 45 52
8 7 7 7 7 10 12 14 15 14 16 16 16 19 20 20 21 26 26 24 24 22 22 22 19 14 12 16 19 16 18 22 23 23 20 18 17 16 17 18 20 21 20 17 18 21 17 12 11 13 15 22 32 39 44 52 54 56 62 66 71 75 78 82 87 90 91 92 94 94 93 92 92 89 82 77 73 66 64 67 68 64 60 56 53 49 49 54
8 7 7 6 7 11 13 16 17 18 19 19 20 21 25 27 28 31 31 31 32 29 27 26 20 17 17 19 19 16 20 26 30 30 23 19 19 18 18 18 17 19 19 17 18 20 17 12 10 10 14 21 29 35 42 48 50 53 57 61 66 69 73 79 85 89 92 94 95 95 96 94 92 90 86 82 77 70 66 67 68 65 61 60 55 53 55 56
8 7 7 6 8 11 14 17 19 21 20 20 22 24 28 32 32 34 37 41 42 35 29 26 25 25 22 20 18 18 23 28 32 33 26 20 22 22 22 22 18 17 18 17 17 19 18 14 11 10 14 20 26 33 41 47 51 53 55 56 59 64 72 78 82 86 91 95 93 93 97 96 92 91 89 87 83 76 71 69 68 63 62 63 57 55 59 59
7 7 6 7 9 12 15 17 19 21 19 20 23 26 31 35 36 36 41 47 43 33 28 27 29 30 26 22 19 19 27 33 34 34 28 23 24 25 26 26 21 17 17 17 17 17 17 15 12 12 16 20 25 33 40 45 51 54 53 53 58 62 70 77 79 82 88 92 91 91 95 95 93 92 90 89 86 80 75 72 69 64 64 64 59 57 60 60
7 7 6 7 9 13 15 16 19 19 20 22 24 27 31 36 40 40 47 52 38 28 31 29 29 29 25 23 21 25 35 39 37 34 31 27 24 24 27 26 22 19 18 17 17 15 14 15 13 13 16 18 26 36 39 42 52 57 53 53 59 63 66 73 78 83 86 88 92 94 94 94 93 91 91 90 87 83 78 74 70 67 66 65 61 60 60 59
7 7 6 7 9 13 14 15 18 18 21 23 24 29 33 37 42 44 53 54 34 26 32 29 27 26 23 22 24 31 39 41 41 36 30 26 21 23 27 25 23 23 21 19 19 16 13 14 14 16 18 18 26 36 39 44 53 60 58 56 60 64 65 70 77 85 87 87 94 96 93 95 94 90 91 92 88 86 81 74 70 68 67 64 62 62 61 60
7 7 7 7 10 13 14 16 18 19 22 24 25 31 35 40 43 43 53 52 33 27 31 30 30 27 24 23 23 30 38 40 41 38 30 22 19 21 25 24 24 25 24 22 20 17 14 14 16 21 25 24 28 36 42 47 52 58 59 58 61 65 67 73 79 84 87 88 92 94 91 94 96 92 92 92 89 86 81 76 72 69 68 64 61 63 65 63
7 7 7 8 11 13 14 17 19 20 23 24 26 32 38 44 45 46 53 48 33 29 30 31 32 30 27 25 23 30 39 40 37 36 30 20 15 19 23 25 24 23 25 22 18 17 18 18 21 24 29 33 34 37 43 48 53 59 57 56 64 69 70 76 81 83 89 91 89 90 91 92 95 93 90 89 86 82 78 77 75 71 68 64 60 61 65 66
7 7 7 9 12 13 14 19 20 21 23 24 29 36 41 45 47 51 52 41 32 31 32 32 32 32 33 33 34 35 39 42 39 36 30 18 15 20 22 25 26 24 24 21 18 19 19 23 27 25 30 38 39 39 44 47 52 58 54 53 65 74 75 80 85 86 92 93 88 88 91 92 94 93 88 86 84 80 76 76 75 71 67 63 60 60 64 65
8 8 7 9 12 12 15 18 19 21 22 25 33 39 45 49 49 50 45 36 31 31 32 32 31 35 36 38 44 39 36 44 44 39 30 20 19 20 20 27 28 26 26 21 20 21 19 26 33 30 29 34 37 40 46 48 52 57 52 52 66 77 79 83 89 90 91 92 88 88 90 92 91 89 87 85 83 81 76 75 74 69 66 64 60 59 63 63
8 8 8 10 12 13 15 17 19 20 21 25 34 40 49 55 50 42 36 32 29 26 28 29 30 38 39 40 47 41 38 45 45 40 34 28 26 21 22 30 28 28 31 26 24 24 22 27 34 33 30 29 32 38 44 49 54 58 52 51 63 72 77 83 89 90 91 90 89 87 89 93 91 87 86 83 81 80 77 77 75 69 67 65 60 58 61 63
9 7 8 10 12 14 15 17 19 20 21 26 36 45 51 54 47 37 31 29 28 26 28 27 29 37 38 38 45 42 41 47 44 40 40 38 35 26 27 32 29 31 36 34 31 28 26 31 33 31 29 28 34 38 39 43 48 51 49 46 51 58 68 80 87 89 90 90 90 90 89 90 90 87 85 82 81 80 79 78 77 75 73 67 63 61 61 63
8 8 8 10 13 14 15 17 19 20 21 26 37 49 53 49 41 35 30 29 28 27 28 27 28 31 34 37 43 40 41 46 42 41 43 41 38 33 32 34 32 33 37 39 39 31 27 31 31 28 26 27 34 38 36 40 43 44 46 45 45 49 55 67 76 80 84 88 90 91 88 86 85 84 83 82 83 83 81 79 79 81 79 73 69 65 62 62
9 9 8 10 14 16 16 18 20 21 22 26 39 49 48 43 39 34 29 27 27 26 27 30 30 31 34 38 41 38 40 43 39 41 45 41 36 35 36 36 33 34 38 39 39 35 31 30 28 28 28 27 33 36 34 39 41 38 39 42 42 42 47 59 69 73 77 85 88 87 87 86 84 82 81 81 84 86 84 80 80 82 81 78 72 66 62 61
10 12 11 12 15 17 18 19 21 23 22 28 43 48 42 38 37 33 26 23 25 26 28 33 34 34 35 37 38 36 37 39 39 44 49 45 40 37 36 38 35 36 38 37 36 35 33 31 28 28 30 28 30 34 34 36 37 36 37 41 43 43 45 53 65 73 78 84 86 84 86 88 85 83 81 79 82 86 85 82 81 82 82 82 76 67 63 60
12 14 14 16 17 19 20 18 20 22 22 30 44 49 43 38 36 33 25 22 26 27 30 35 36 35 36 37 39 37 36 39 42 45 48 47 44 39 37 40 38 36 37 36 37 37 32 30 31 29 30 30 26 30 36 35 35 35 36 41 48 51 49 48 56 65 74 84 86 82 82 84 81 81 80 79 79 81 83 82 82 82 81 82 78 68 62 60
16 18 20 24 25 24 21 17 18 21 24 33 44 49 44 37 34 32 26 24 26 26 31 37 36 35 38 39 40 39 38 41 43 43 45 48 48 43 39 39 37 35 34 35 37 37 32 32 33 30 29 29 25 25 31 35 35 32 30 35 45 50 49 49 50 53 64 80 83 79 80 78 73 72 73 75 76 76 78 80 79 81 81 81 80 72 65 64
21 23 25 29 31 27 19 17 19 24 29 35 41 44 41 35 32 29 25 25 25 26 32 37 37 36 38 40 39 37 39 42 42 42 45 48 48 44 40 37 36 35 35 34 34 34 33 34 35 32 28 28 26 22 24 27 28 26 25 29 37 42 45 46 46 46 53 68 74 75 79 73 65 65 66 69 73 73 73 75 76 78 79 81 83 76 69 70
23 28 28 30 33 28 20 19 22 27 34 40 42 41 37 33 29 25 24 25 25 28 32 35 37 39 38 39 38 37 39 42 42 43 44 42 41 40 39 37 35 33 35 36 36 36 37 36 35 33 29 28 27 24 21 20 18 18 20 26 32 37 42 46 49 47 45 55 63 69 75 71 62 61 61 64 69 69 69 71 73 76 78 81 84 76 71 75
25 29 30 33 36 31 25 24 25 29 36 42 44 39 31 27 27 25 25 26 27 30 32 32 37 40 39 38 38 38 40 41 40 41 41 40 38 37 36 36 33 30 33 38 39 40 40 38 36 35 32 29 28 25 24 21 16 13 14 19 24 30 36 43 49 49 47 52 56 62 73 72 63 61 59 60 66 67 67 68 69 74 78 82 83 78 77 79
25 25 28 34 37 34 29 29 28 31 36 39 40 37 29 24 26 26 25 26 29 31 31 32 36 39 39 39 38 38 39 40 39 39 40 41 39 36 34 36 35 32 34 39 39 39 40 39 38 37 33 29 26 25 23 19 16 15 14 14 15 18 23 30 38 43 50 56 57 65 76 72 63 63 61 59 61 63 64 65 66 70 78 83 83 82 83 80
22 22 27 34 37 31 27 29 30 32 38 42 41 38 33 26 23 23 22 21 23 25 29 34 37 38 40 39 38 38 39 40 39 38 40 41 38 35 33 34 35 34 34 36 37 37 40 41 40 41 41 39 35 31 25 20 16 17 19 17 15 17 19 22 28 34 41 50 54 62 71 68 64 64 60 57 59 61 61 63 64 67 74 81 84 85 85 78
20 24 30 35 36 32 28 29 29 30 36 41 40 38 37 32 26 23 20 15 14 16 24 33 36 37 38 38 39 39 38 39 39 38 40 40 37 34 32 30 32 31 30 32 33 34 37 40 40 44 48 50 49 41 33 29 21 17 20 20 18 20 18 19 28 34 38 43 48 53 60 62 63 63 59 57 59 60 62 64 65 66 70 74 79 82 83 79
22 30 35 37 38 35 31 29 27 29 34 36 37 36 33 33 30 25 20 15 13 16 21 26 30 34 36 36 39 42 40 38 40 39 40 41 37 34 31 29 29 29 29 30 30 31 35 37 39 43 44 45 45 40 34 31 24 18 20 21 20 23 23 21 27 34 38 44 49 51 52 55 59 60 59 58 57 60 63 66 69 72 74 73 74 76 78 78
22 30 37 41 42 37 34 32 30 33 37 37 37 34 30 31 32 27 24 18 14 15 19 21 25 31 35 34 38 42 40 39 41 39 39 41 38 33 30 28 28 28 28 28 29 31 35 36 38 41 42 40 39 35 32 31 26 20 20 22 22 23 25 26 29 34 39 47 56 55 51 51 53 54 56 57 57 60 63 63 66 70 73 73 74 75 76 79
24 33 38 42 44 41 41 40 35 36 40 40 37 32 28 31 32 31 30 25 19 18 20 23 26 30 33 32 35 40 40 40 43 42 41 41 39 36 33 29 28 28 28 29 29 30 34 37 38 38 38 38 35 33 32 33 31 26 27 32 30 27 31 36 38 38 39 45 53 54 51 50 50 51 54 56 58 60 61 60 60 61 65 71 76 77 76 78
24 33 36 37 42 43 42 39 35 38 42 39 36 33 30 32 34 35 34 30 29 25 20 23 29 31 31 31 34 39 41 41 43 44 43 41 39 39 37 33 31 29 28 30 31 31 32 36 36 35 36 37 35 33 32 32 34 35 36 40 39 37 41 46 43 39 39 44 50 51 49 50 51 53 56 56 56 57 58 59 60 60 66 73 76 75 75 77
27 32 34 36 41 41 39 37 33 35 37 36 34 34 33 33 36 37 31 26 28 26 20 23 29 28 28 28 30 36 40 42 44 43 41 40 41 41 40 38 35 32 29 29 30 31 31 34 34 30 32 36 34 33 32 32 38 42 42 44 44 41 42 43 42 43 49 56 58 53 50 54 57 58 60 59 58 58 59 60 60 63 69 73 74 75 76 79
26 29 32 38 42 40 39 39 36 35 37 36 35 35 33 33 37 37 31 25 23 22 20 22 23 23 23 24 26 30 34 39 42 41 39 38 37 38 39 39 38 36 34 31 31 30 30 33 33 31 34 37 35 35 36 37 40 42 44 51 53 48 45 45 45 49 56 62 62 55 55 61 62 62 65 66 65 67 70 68 64 64 67 68 71 74 75 75
20 25 28 34 41 40 38 39 38 37 39 39 39 37 34 36 38 37 36 33 25 19 19 19 18 21 25 27 28 29 29 30 32 34 36 36 33 33 35 37 38 37 36 34 33 32 31 32 33 35 38 39 39 41 42 43 47 48 49 58 61 55 50 50 50 53 58 62 63 62 64 64 63 64 68 68 67 69 74 74 72 71 69 67 69 73 74 75